Regional Weather Roundup
Issued by NWS

Home | Current Version | Previous Version | Graphics & Text | Print | Product List | Glossary On
Versions: 1 2 3 4 5 6 7 8 9 10 11 12 13 14 15 16 17 18 19 20 21 22 23 24 25 26 27 28 29 30 31 32 33 34 35 36 37 38 39 40 41 42 43 44 45 46 47 48 49 50
000
ASUS43 KFSD 021602
RWRSD

WEATHER ROUNDUP FOR SOUTH DAKOTA
NATIONAL WEATHER SERVICE SIOUX FALLS SD
1000 AM CST MON MAR 02 2015

NOTE: "FAIR" INDICATES FEW OR NO CLOUDS BELOW 12,000 FEET WITH NO
SIGNIFICANT WEATHER AND/OR OBSTRUCTIONS TO VISIBILITY.


SDZ001>005-009-010-012>017-021700-
NORTHWEST AND NORTH CENTRAL SOUTH DAKOTA

CITY           SKY/WX    TMP DP  RH WIND       PRES   REMARKS
BUFFALO          N/A     21  12  68 S14       29.83F WCI   8
FAITH            N/A     25  12  58 S24       29.94F WCI   9
MOBRIDGE       SUNNY     24  15  68 SE18      30.07F WCI  10
$$

SDZ012>016-024>037-041>051-057-063-072>074-021700-
SOUTHWEST AND SOUTH CENTRAL SOUTH DAKOTA

CITY           SKY/WX    TMP DP  RH WIND       PRES   REMARKS
RAPID CTY ARPT SUNNY     31  20  63 S20G26    29.90F WCI  19
PIERRE         PTSUNNY   25  12  58 SE18      30.14F WCI  11
CUSTER         SUNNY     26  17  68 SW10G16   29.83F WCI  16
PHILIP         SUNNY     33  13  43 SE15G21   30.04F WCI  23
PINE RIDGE     SUNNY     35  18  49 S21G36    29.95F WCI  24
WINNER         CLOUDY    31  10  41 SE22G29   30.18F WCI  18
$$

SDZ004>011-016>023-039-040-021700-
NORTHEAST SOUTH DAKOTA

CITY           SKY/WX    TMP DP  RH WIND       PRES   REMARKS
ABERDEEN       SUNNY     19  12  74 S20       30.29F WCI   3
WATERTOWN      MOSUNNY   13   8  81 S15       30.31F WCI  -3
$$

SDZ017-020-022-023-036>040-048>070-021700-
SOUTHEAST SOUTH DAKOTA

CITY           SKY/WX    TMP DP  RH WIND       PRES   REMARKS
SIOUX FALLS    CLOUDY    21  14  74 S15       30.40F WCI   8
HURON          PTSUNNY   21  15  78 S15G24    30.30F WCI   8
MITCHELL       PTSUNNY   25  17  72 SE18      30.34F WCI  11
YANKTON        MOSUNNY   27  18  69 SE14      30.40F WCI  15
$$

ABBREVIATIONS USED IN REMARKS
   TC - TEMPERATURE IN CELSIUS
  WCI - WIND CHILL INDEX
   HX - HEAT INDEX
  VSB - VISIBILITY



USA.gov is the U.S. government's official web portal to all federal, state and local government web resources and services.